Time,TemperatureF,DewpointF,PressureIn,WindDirection,WindDirectionDegrees,WindSpeedMPH,WindSpeedGustMPH,Humidity,HourlyPrecipIn,Conditions,Clouds,dailyrainin,SoftwareType,DateUTC
2013-02-07 00:08:00,47.7,40.0,30.17,ESE,103,0.0,-999.0,74,-99.99,,,0.00,weatherlink.com 1.10,2013-02-07 06:08:00,
2013-02-07 00:23:00,48.2,41.0,30.17,ESE,103,1.0,-999.0,75,-99.99,,,0.00,weatherlink.com 1.10,2013-02-07 06:23:00,
2013-02-07 00:38:00,48.6,41.0,30.18,ESE,103,0.0,-999.0,74,-99.99,,,0.00,weatherlink.com 1.10,2013-02-07 06:38:00,
2013-02-07 01:08:00,48.6,42.0,30.19,ESE,103,0.0,-999.0,77,-99.99,,,0.00,weatherlink.com 1.10,2013-02-07 07:08:00,
2013-02-07 01:23:00,48.2,42.0,30.19,ESE,103,0.0,-999.0,78,-99.99,,,0.00,weatherlink.com 1.10,2013-02-07 07:23:00,
2013-02-07 01:38:00,48.5,41.0,30.19,ESE,103,0.0,-999.0,75,-99.99,,,0.00,weatherlink.com 1.10,2013-02-07 07:38:00,
2013-02-07 01:53:00,50.3,39.0,30.18,ESE,116,4.0,-999.0,66,-99.99,,,0.00,weatherlink.com 1.10,2013-02-07 07:53:00,
2013-02-07 02:08:00,51.9,39.0,30.18,SE,134,5.0,-999.0,61,-99.99,,,0.00,weatherlink.com 1.10,2013-02-07 08:08:00,
2013-02-07 02:23:00,52.9,37.0,30.17,SE,141,5.0,-999.0,56,-99.99,,,0.00,weatherlink.com 1.10,2013-02-07 08:23:00,
2013-02-07 02:38:00,53.9,36.0,30.16,SE,142,5.0,-999.0,52,-99.99,,,0.00,weatherlink.com 1.10,2013-02-07 08:38:00,
2013-02-07 02:53:00,53.7,36.0,30.16,SE,146,1.0,-999.0,52,-99.99,,,0.00,weatherlink.com 1.10,2013-02-07 08:53:00,
2013-02-07 03:08:00,53.3,37.0,30.16,South,184,2.0,-999.0,54,-99.99,,,0.00,weatherlink.com 1.10,2013-02-07 09:08:00,
2013-02-07 03:23:00,52.3,38.0,30.16,WSW,238,0.0,-999.0,59,-99.99,,,0.00,weatherlink.com 1.10,2013-02-07 09:23:00,
2013-02-07 03:38:00,51.5,38.0,30.17,WSW,238,0.0,-999.0,61,-99.99,,,0.00,weatherlink.com 1.10,2013-02-07 09:38:00,
2013-02-07 03:53:00,51.3,39.0,30.18,SE,146,0.0,-999.0,62,-99.99,,,0.00,weatherlink.com 1.10,2013-02-07 09:53:00,
2013-02-07 04:08:00,51.2,38.0,30.16,SSW,192,0.0,-999.0,62,-99.99,,,0.00,weatherlink.com 1.10,2013-02-07 10:08:00,
2013-02-07 04:23:00,50.9,40.0,30.17,South,191,0.0,-999.0,66,-99.99,,,0.00,weatherlink.com 1.10,2013-02-07 10:23:00,
2013-02-07 04:38:00,48.4,42.0,30.18,SSW,197,0.0,-999.0,78,-99.99,,,0.00,weatherlink.com 1.10,2013-02-07 10:38:00,
2013-02-07 04:54:00,47.7,43.0,30.18,SSW,197,0.0,-999.0,84,-99.99,,,0.00,weatherlink.com 1.10,2013-02-07 10:54:00,
2013-02-07 05:08:00,47.0,44.0,30.18,SSW,196,0.0,-999.0,88,-99.99,,,0.00,weatherlink.com 1.10,2013-02-07 11:08:00,
2013-02-07 05:23:00,46.7,44.0,30.19,SSW,196,0.0,-999.0,90,-99.99,,,0.00,weatherlink.com 1.10,2013-02-07 11:23:00,
2013-02-07 05:38:00,46.9,45.0,30.17,SE,138,2.0,-999.0,93,-99.99,,,0.00,weatherlink.com 1.10,2013-02-07 11:38:00,
2013-02-07 05:53:00,47.7,46.0,30.16,ESE,105,2.0,-999.0,94,-99.99,,,0.00,weatherlink.com 1.10,2013-02-07 11:53:00,
2013-02-07 06:08:00,48.3,47.0,30.16,East,94,4.0,-999.0,94,-99.99,,,0.00,weatherlink.com 1.10,2013-02-07 12:08:00,
2013-02-07 06:23:00,48.3,46.0,30.16,East,94,4.0,-999.0,93,-99.99,,,0.00,weatherlink.com 1.10,2013-02-07 12:23:00,
2013-02-07 06:38:00,48.2,46.0,30.15,ESE,116,2.0,-999.0,91,-99.99,,,0.00,weatherlink.com 1.10,2013-02-07 12:38:00,
2013-02-07 06:53:00,48.5,46.0,30.14,East,87,4.0,-999.0,89,-99.99,,,0.00,weatherlink.com 1.10,2013-02-07 12:53:00,
2013-02-07 07:08:00,48.5,45.0,30.13,ESE,108,2.0,-999.0,87,-99.99,,,0.00,weatherlink.com 1.10,2013-02-07 13:08:00,
2013-02-07 07:23:00,48.3,44.0,30.12,ESE,123,6.0,-999.0,86,-99.99,,,0.00,weatherlink.com 1.10,2013-02-07 13:23:00,
2013-02-07 07:38:00,48.3,44.0,30.12,ESE,110,6.0,-999.0,86,-99.99,,,0.00,weatherlink.com 1.10,2013-02-07 13:38:00,
2013-02-07 07:54:00,48.2,44.0,30.12,SE,124,4.0,-999.0,86,-99.99,,,0.00,weatherlink.com 1.10,2013-02-07 13:54:00,
2013-02-07 08:08:00,48.3,44.0,30.11,SE,138,2.0,-999.0,86,-99.99,,,0.00,weatherlink.com 1.10,2013-02-07 14:08:00,
2013-02-07 08:23:00,48.5,45.0,30.12,ESE,107,4.0,-999.0,86,-99.99,,,0.00,weatherlink.com 1.10,2013-02-07 14:23:00,
2013-02-07 08:39:00,48.6,45.0,30.12,ESE,119,5.0,-999.0,86,-99.99,,,0.00,weatherlink.com 1.10,2013-02-07 14:39:00,
2013-02-07 08:54:00,48.7,44.0,30.11,ESE,107,5.0,-999.0,83,-99.99,,,0.00,weatherlink.com 1.10,2013-02-07 14:54:00,
2013-02-07 09:08:00,48.6,43.0,30.11,ESE,120,0.0,-999.0,82,-99.99,,,0.00,weatherlink.com 1.10,2013-02-07 15:08:00,
2013-02-07 09:24:00,48.7,43.0,30.10,ESE,121,7.0,-999.0,82,-99.99,,,0.00,weatherlink.com 1.10,2013-02-07 15:24:00,
2013-02-07 09:39:00,49.0,43.0,30.10,ESE,117,5.0,-999.0,80,-99.99,,,0.00,weatherlink.com 1.10,2013-02-07 15:39:00,
2013-02-07 09:54:00,49.4,44.0,30.10,ESE,111,8.0,-999.0,80,-99.99,,,0.00,weatherlink.com 1.10,2013-02-07 15:54:00,
2013-02-07 10:09:00,49.6,44.0,30.10,SE,137,7.0,-999.0,80,-99.99,,,0.00,weatherlink.com 1.10,2013-02-07 16:09:00,
2013-02-07 10:39:00,50.0,44.0,30.09,ESE,109,0.0,-999.0,80,-99.99,,,0.00,weatherlink.com 1.10,2013-02-07 16:39:00,
2013-02-07 10:54:00,50.2,44.0,30.08,ESE,112,0.0,-999.0,80,-99.99,,,0.00,weatherlink.com 1.10,2013-02-07 16:54:00,
2013-02-07 11:09:00,50.6,45.0,30.08,SE,128,7.0,-999.0,80,-99.99,,,0.00,weatherlink.com 1.10,2013-02-07 17:09:00,
2013-02-07 11:24:00,51.0,45.0,30.08,SE,124,6.0,-999.0,79,-99.99,,,0.00,weatherlink.com 1.10,2013-02-07 17:24:00,
2013-02-07 11:39:00,51.3,45.0,30.08,SE,136,6.0,-999.0,78,-99.99,,,0.00,weatherlink.com 1.10,2013-02-07 17:39:00,
2013-02-07 11:54:00,51.6,45.0,30.07,SE,129,2.0,-999.0,77,-99.99,,,0.00,weatherlink.com 1.10,2013-02-07 17:54:00,
2013-02-07 12:09:00,51.4,44.0,30.06,SE,133,4.0,-999.0,76,-99.99,,,0.00,weatherlink.com 1.10,2013-02-07 18:09:00,
2013-02-07 12:24:00,51.2,44.0,30.06,SE,126,1.0,-999.0,77,-99.99,,,0.00,weatherlink.com 1.10,2013-02-07 18:24:00,
2013-02-07 12:39:00,51.2,44.0,30.05,ESE,121,4.0,-999.0,77,-99.99,,,0.00,weatherlink.com 1.10,2013-02-07 18:39:00,
2013-02-07 12:54:00,50.2,45.0,30.04,SSE,153,10.0,-999.0,81,-99.99,,,0.00,weatherlink.com 1.10,2013-02-07 18:54:00,
2013-02-07 13:09:00,49.4,45.0,30.04,SE,135,4.0,-999.0,86,-99.99,,,0.00,weatherlink.com 1.10,2013-02-07 19:09:00,
2013-02-07 13:24:00,49.0,46.0,30.04,ESE,120,6.0,-999.0,88,-99.99,,,0.00,weatherlink.com 1.10,2013-02-07 19:24:00,
2013-02-07 13:39:00,48.8,46.0,30.03,ESE,107,8.0,-999.0,89,-99.99,,,0.00,weatherlink.com 1.10,2013-02-07 19:39:00,
2013-02-07 13:55:00,48.6,46.0,30.03,SE,130,5.0,-999.0,90,-99.99,,,0.00,weatherlink.com 1.10,2013-02-07 19:55:00,
2013-02-07 14:10:00,48.4,46.0,30.03,East,93,2.0,-999.0,92,-99.99,,,0.00,weatherlink.com 1.10,2013-02-07 20:10:00,
2013-02-07 14:24:00,48.5,47.0,30.02,East,92,5.0,-999.0,93,-99.99,,,0.00,weatherlink.com 1.10,2013-02-07 20:24:00,
2013-02-07 14:40:00,48.9,47.0,30.02,East,92,6.0,-999.0,94,-99.99,,,0.00,weatherlink.com 1.10,2013-02-07 20:40:00,
2013-02-07 14:54:00,48.9,47.0,30.02,East,99,4.0,-999.0,94,-99.99,,,0.00,weatherlink.com 1.10,2013-02-07 20:54:00,
2013-02-07 15:10:00,48.8,47.0,30.02,East,98,5.0,-999.0,94,-99.99,,,0.00,weatherlink.com 1.10,2013-02-07 21:10:00,
2013-02-07 15:24:00,49.0,48.0,30.02,East,90,4.0,-999.0,95,-99.99,,,0.00,weatherlink.com 1.10,2013-02-07 21:24:00,
2013-02-07 15:39:00,49.2,48.0,30.02,East,97,5.0,-999.0,95,-99.99,,,0.00,weatherlink.com 1.10,2013-02-07 21:39:00,
2013-02-07 15:55:00,49.2,48.0,30.02,East,100,4.0,-999.0,95,-99.99,,,0.00,weatherlink.com 1.10,2013-02-07 21:55:00,
2013-02-07 16:09:00,49.1,48.0,30.01,East,97,6.0,-999.0,95,-99.99,,,0.00,weatherlink.com 1.10,2013-02-07 22:09:00,
2013-02-07 16:24:00,49.0,48.0,30.01,East,92,5.0,-999.0,95,-99.99,,,0.00,weatherlink.com 1.10,2013-02-07 22:24:00,
2013-02-07 16:39:00,48.9,48.0,30.02,East,90,5.0,-999.0,95,-99.99,,,0.00,weatherlink.com 1.10,2013-02-07 22:39:00,
2013-02-07 16:54:00,48.8,48.0,30.02,ENE,76,3.0,-999.0,95,-99.99,,,0.00,weatherlink.com 1.10,2013-02-07 22:54:00,
2013-02-07 17:09:00,48.8,48.0,30.02,East,94,4.0,-999.0,95,-99.99,,,0.00,weatherlink.com 1.10,2013-02-07 23:09:00,
2013-02-07 17:25:00,48.7,48.0,30.03,ESE,109,6.0,-999.0,96,-99.99,,,0.00,weatherlink.com 1.10,2013-02-07 23:25:00,
2013-02-07 17:40:00,48.7,48.0,30.02,ESE,103,2.0,-999.0,96,-99.99,,,0.00,weatherlink.com 1.10,2013-02-07 23:40:00,
2013-02-07 17:55:00,48.4,47.0,30.01,East,84,5.0,-999.0,96,-99.99,,,0.00,weatherlink.com 1.10,2013-02-07 23:55:00,
2013-02-07 18:10:00,48.3,47.0,30.02,East,100,5.0,-999.0,96,-99.99,,,0.00,weatherlink.com 1.10,2013-02-08 00:10:00,
2013-02-07 18:25:00,48.2,47.0,30.03,SE,125,4.0,-999.0,96,-99.99,,,0.00,weatherlink.com 1.10,2013-02-08 00:25:00,
2013-02-07 18:40:00,48.2,47.0,30.02,SE,128,5.0,-999.0,95,-99.99,,,0.00,weatherlink.com 1.10,2013-02-08 00:40:00,
2013-02-07 18:55:00,48.1,47.0,30.03,SE,126,6.0,-999.0,95,-99.99,,,0.00,weatherlink.com 1.10,2013-02-08 00:55:00,
2013-02-07 19:10:00,48.0,47.0,30.03,SE,138,2.0,-999.0,95,-99.99,,,0.00,weatherlink.com 1.10,2013-02-08 01:10:00,
2013-02-07 19:25:00,47.9,47.0,30.04,SE,126,4.0,-999.0,95,-99.99,,,0.00,weatherlink.com 1.10,2013-02-08 01:25:00,
2013-02-07 19:40:00,47.9,47.0,30.05,SE,130,1.0,-999.0,95,-99.99,,,0.00,weatherlink.com 1.10,2013-02-08 01:40:00,
2013-02-07 19:55:00,47.8,47.0,30.05,SE,130,0.0,-999.0,95,-99.99,,,0.00,weatherlink.com 1.10,2013-02-08 01:55:00,
2013-02-07 20:10:00,47.8,47.0,30.04,ESE,113,0.0,-999.0,96,-99.99,,,0.00,weatherlink.com 1.10,2013-02-08 02:10:00,
2013-02-07 20:25:00,47.7,47.0,30.05,ESE,113,0.0,-999.0,96,-99.99,,,0.00,weatherlink.com 1.10,2013-02-08 02:25:00,
2013-02-07 20:40:00,47.7,47.0,30.04,ESE,122,4.0,-999.0,96,-99.99,,,0.00,weatherlink.com 1.10,2013-02-08 02:40:00,
2013-02-07 20:55:00,47.6,47.0,30.04,SE,141,1.0,-999.0,96,-99.99,,,0.00,weatherlink.com 1.10,2013-02-08 02:55:00,
2013-02-07 21:10:00,47.6,47.0,30.04,SE,141,7.0,-999.0,96,-99.99,,,0.00,weatherlink.com 1.10,2013-02-08 03:10:00,
2013-02-07 21:25:00,47.6,47.0,30.03,SE,127,1.0,-999.0,96,-99.99,,,0.00,weatherlink.com 1.10,2013-02-08 03:25:00,
2013-02-07 21:40:00,47.6,46.0,30.03,SE,141,4.0,-999.0,95,-99.99,,,0.00,weatherlink.com 1.10,2013-02-08 03:40:00,
2013-02-07 21:55:00,47.7,46.0,30.02,SE,125,6.0,-999.0,95,-99.99,,,0.00,weatherlink.com 1.10,2013-02-08 03:55:00,
2013-02-07 22:10:00,47.7,46.0,30.02,SE,144,7.0,-999.0,95,-99.99,,,0.00,weatherlink.com 1.10,2013-02-08 04:10:00,
2013-02-07 22:25:00,47.7,46.0,30.03,SE,144,0.0,-999.0,94,-99.99,,,0.00,weatherlink.com 1.10,2013-02-08 04:25:00,
2013-02-07 22:40:00,47.8,47.0,30.04,SSE,151,2.0,-999.0,95,-99.99,,,0.00,weatherlink.com 1.10,2013-02-08 04:40:00,
2013-02-07 22:55:00,47.7,46.0,30.05,SSE,151,0.0,-999.0,95,-99.99,,,0.00,weatherlink.com 1.10,2013-02-08 04:55:00,
2013-02-07 23:10:00,47.7,46.0,30.05,SSE,151,1.0,-999.0,95,-99.99,,,0.00,weatherlink.com 1.10,2013-02-08 05:10:00,
2013-02-07 23:25:00,47.6,46.0,30.06,SSE,152,1.0,-999.0,95,-99.99,,,0.00,weatherlink.com 1.10,2013-02-08 05:25:00,
2013-02-07 23:40:00,47.5,46.0,30.05,SSE,152,0.0,-999.0,95,-99.99,,,0.00,weatherlink.com 1.10,2013-02-08 05:40:00,
2013-02-07 23:55:00,47.4,46.0,30.05,SSE,152,0.0,-999.0,95,-99.99,,,0.00,weatherlink.com 1.10,2013-02-08 05:55:00,